Regional Weather Roundup
Issued by NWS Sioux Falls, SD

Home | Current Version | Previous Version | Text Only | Print | Product List | Glossary On
Versions: 1 2 3 4 5 6 7 8 9 10 11 12 13 14 15 16 17 18 19 20 21 22 23 24 25 26 27 28 29 30 31 32 33 34 35 36 37 38 39 40 41 42 43 44 45 46 47 48 49 50
000
ASUS43 KFSD 272310
RWRFSD

WEATHER ROUNDUP FOR SE SOUTH DAKOTA/SW MINNESOTA/NW IOWA
NATIONAL WEATHER SERVICE SIOUX FALLS SD
600 PM CDT WED MAY 27 2015

NOTE: "FAIR" INDICATES FEW OR NO CLOUDS BELOW 12,000 FEET WITH NO
SIGNIFICANT WEATHER AND OR OBSTRUCTIONS TO VISIBILITY.


SDZ038>040-050-052>070-280000-
SOUTHEAST SOUTH DAKOTA

CITY           SKY/WX    TMP DP  RH WIND       PRES   REMARKS
BROOKINGS      PTSUNNY   82  45  26 S5        29.99F
CHAMBERLAIN    MOSUNNY   79  48  34 S13G22    29.96F
HURON            N/A    N/A N/A N/A MISG      29.95F
MADISON        FAIR      81  46  30 SW12      30.00F
MITCHELL       PTSUNNY   80  51  36 CALM      29.98F
SIOUX FALLS    CLOUDY    80  52  37 S6        29.99F
WINNER         FAIR      80  47  31 S16G24    29.95F
YANKTON        MOSUNNY   82  50  32 S9        29.97F
$$

MNZ071-072-080-081-089-090-097-098-280000-
SOUTHWEST MINNESOTA

CITY           SKY/WX    TMP DP  RH WIND       PRES   REMARKS
FAIRMONT       MOSUNNY   86  45  23 NW5       30.00S
JACKSON        MOSUNNY   81  46  30 W3        30.01F
LUVERNE        MOSUNNY   81  45  28 S7        30.00F
MARSHALL       MOSUNNY   82  46  28 N5        29.97F
MONTEVIDEO     MOSUNNY   84  46  26 N3        29.97F
REDWOOD FALLS  MOSUNNY   86  45  23 CALM      29.96F
TRACY          MOSUNNY   83  45  26 SW7       29.99F
WINDOM         MOSUNNY   82  46  28 CALM      30.00F
WORTHINGTON    MOSUNNY   81  45  28 SW6       30.01S
$$

IAZ001>003-012>014-020>022-031-032-NEZ013-014-SDZ071-280000-
NORTHWEST IOWA

CITY           SKY/WX    TMP DP  RH WIND       PRES   REMARKS
CHEROKEE       MOSUNNY   80  51  36 S7        30.01F
DENISON        SUNNY     81  54  39 S7        30.02F
ESTHERVILLE    PTSUNNY   81  45  28 W3        30.00S
LE MARS        MOSUNNY   82  48  30 S8        30.01F
ORANGE CITY    MOSUNNY   79  48  34 SW7       30.02S
SHELDON        MOSUNNY   82  77  83 S6        30.00F
SIOUX CITY     MOSUNNY   84  50  30 S10       30.00F
SPENCER        MOSUNNY   84  47  27 SW7       30.01F
STORM LAKE     SUNNY     81  46  30 VRB6      30.04F
$$

ABBREVIATIONS USED IN REMARKS
   TC - TEMPERATURE IN CELSIUS
  WCI - WIND CHILL INDEX
   HX - HEAT INDEX
  VSB - VISIBILITY




USA.gov is the U.S. government's official web portal to all federal, state and local government web resources and services.